Location: Airon-Notre-Dame
(50.4360°N, 1.6596°E)
Time: 22:09:37
(UTC+00:00)

Cosmos 2219 - Pass Details

Date: 13 December 2025
Orbit: 833 x 858 km, 71.1° (Epoch: 12 April)

Event Time Altitude Azimuth Distance (km) Brightness Sun altitude
Rises 17:35:58 0° 331° (NNW) 3,430 6.5 -15.9°
Reaches altitude 10° 17:38:26 10° 333° (NNW) 2,494 5.8 -16.2°
Maximum altitude 17:44:10 77° 59° (ENE) 884 3.1 -17.1°
Drops below altitude 10° 17:49:54 10° 146° (SE) 2,488 5.5 -18.0°
Sets 17:52:22 0° 148° (SSE) 3,421 6.2 -18.4°
